CAPE
480 583 611 904 796 900 1257 1095 1127 1299 1030 1293 1316 1098 1288 1211 1113 1030 1076 1004 993 1149 1121 1081 1044 939 812 949 982 1098 1236 1485 1006 844 843 1251 908 1118 709 849 289 523 986
472 599 536 882 1028 1219 866 986 1304 1223 1272 1060 1227 1036 1425 1414 1323 1462 1323 1257 1266 1129 1088 1013 983 944 929 518 1157 788 717 1225 1326 1556 911 950 908 1159 833 1115 234 223 396
325 619 695 633 854 1042 989 866 812 1120 1289 1273 1382 700 1422 1365 1279 1223 1330 1379 1411 1286 1362 1338 1344 1347 1248 1045 738 773 1233 980 786 1049 1059 667 569 888 1048 1270 866 992 1516
185 396 646 1217 1385 870 756 816 1196 1305 1287 1219 1023 1375 1444 807 1054 1360 1109 804 814 1002 1239 1134 1100 1221 1342 1391 1249 999 409 807 917 755 1004 449 114 604 1361 1413 1272 1502 1977
295 394 642 1003 1141 1059 1144 1356 1459 1441 1119 916 697 577 610 565 554 647 719 651 652 970 838 838 1152 1464 1630 1498 1439 1420 1202 674 398 576 448 733 444 282 1059 1111 1315 928 1468
212 254 1129 915 1404 1109 1227 1116 563 587 1045 1159 1266 1050 892 821 800 739 741 750 691 786 1028 1289 1469 1305 1253 1606 1245 1107 1336 1384 1209 688 844 1186 766 632 661 1489 1689 1368 1205
144 192 360 1176 1372 1375 1341 1093 1321 1118 1000 709 553 490 513 450 476 590 834 1075 1416 1517 1441 1367 1342 1228 1207 1260 1483 1592 1524 1535 1283 1023 1050 1148 980 919 887 1070 1398 1713 1884
122 108 63 1016 1456 1389 1111 1028 815 748 571 487 472 497 516 619 783 874 925 947 895 953 930 827 935 733 989 1032 1251 1324 1453 1464 1338 1217 1044 1084 1130 721 817 1243 1266 1218 1492
96 207 380 605 812 963 1024 1166 974 709 635 523 723 930 989 1018 1067 987 764 481 489 771 776 769 752 773 791 823 1131 1259 1159 1139 1426 1225 1295 1098 1021 640 746 1132 1141 1139 1294
57 130 341 361 348 269 232 459 575 533 627 946 1216 1423 821 781 576 980 1010 1172 1042 1239 1320 1273 1320 1337 1353 1431 1504 1635 1752 1439 1225 1485 1502 1374 1043 836 1040 873 988 1033 1134
0 86 118 172 373 436 446 231 159 201 669 806 1260 912 1254 1385 1195 1196 1067 996 1664 1662 1759 1780 1773 1534 1468 1401 1548 1678 1724 1714 1325 1308 1388 1308 787 1217 1268 1103 1136 1189 1013
0 0 8 0 0 26 0 429 1108 1069 1170 1415 1596 1676 1310 1578 1671 1392 1067 777 1121 1245 1318 1258 1167 1211 1379 1831 2267 1884 1887 950 1024 1597 1647 1220 1013 866 623 561 914 1158 1199
0 0 0 0 0 0 47 622 934 997 1009 1282 2013 2007 1700 1935 2112 1849 1765 1891 1910 1649 1954 1565 1625 1557 1608 1931 1564 1131 1320 901 471 765 772 651 591 518 271 321 640 718 813
0 0 0 0 91 87 310 519 812 867 1092 1213 1631 2372 2205 1628 2082 2187 1897 1914 2085 1692 1947 1730 1257 1736 1867 1950 1799 1635 1290 781 384 341 344 547 490 190 192 476 1013 1414 1290
0 0 0 2 204 316 794 890 1084 1070 1139 1273 1427 1751 1806 1981 2029 1959 2071 2165 2305 1804 1731 1902 1703 1649 1811 1613 1695 1598 1333 1172 537 425 757 679 241 29 161 268 461 550 865
0 0 0 1 281 746 1098 1255 1445 1505 1550 1282 1185 1517 2223 2036 2189 1610 1756 1946 2348 2355 1952 2048 2015 1803 1510 1333 1513 1616 1795 1447 748 557 679 852 87 60 139 51 48 92 66
0 0 0 41 481 964 1125 1413 1599 1487 1577 1141 1197 1753 2090 2291 2454 2212 1732 1911 2349 2461 2571 1839 1612 1475 1434 1649 1387 1484 1489 1614 1377 1008 582 1049 262 116 250 220 106 100 10
0 0 2 96 397 740 1192 1519 1369 1641 1706 1405 1144 1290 1823 2159 2282 2259 1506 1796 2515 2301 1642 1371 1290 1382 1135 1439 1316 1127 1053 1397 1672 1545 1306 926 721 573 280 217 308 119 0
0 61 266 227 319 733 1198 1422 1433 1592 1576 1400 1366 1242 1847 1717 1907 2334 1564 2123 2433 1529 1767 1413 1091 987 794 751 595 690 914 1102 1614 1566 1460 1436 1075 782 430 601 407 238 113
0 22 227 237 535 858 1024 1523 1144 1131 1285 1268 1288 1555 1834 1322 1861 2407 1815 2318 2275 1239 1346 1674 1905 1286 539 161 22 41 402 715 937 1409 1688 1513 1291 1070 501 836 583 386 299
0 0 0 98 445 750 680 565 582 723 932 822 1220 1800 2086 1230 1317 1925 2044 1993 2235 1996 2204 1846 1394 1214 498 43 63 0 145 431 693 773 1242 1454 1404 1260 866 806 643 696 604
14 71 235 164 438 721 405 514 601 727 938 1005 1220 1781 1840 1737 1405 1878 1749 2296 2325 2187 2425 2357 1912 828 449 90 90 57 4 243 82 2 121 541 1364 1193 999 986 859 894 662
17 119 176 478 449 603 364 411 687 875 989 717 827 1275 1565 1635 1764 1980 2202 2742 2767 2368 1503 2352 1885 1149 403 212 11 8 72 28 0 39 46 23 286 814 915 784 1092 776 493
0 25 204 441 602 619 636 200 326 252 156 257 966 1351 1532 1674 1483 1545 2209 2799 2999 2227 2689 1934 2173 1139 505 267 228 37 0 0 0 0 0 0 27 35 131 133 577 238 66
0 0 110 406 651 608 587 448 121 310 164 253 669 1456 1897 1547 1818 1554 2046 2713 3021 2297 2351 2819 2693 1342 466 349 299 154 11 0 0 0 0 0 0 8 37 86 43 1 0
32 34 53 353 756 781 596 478 187 188 415 212 413 761 750 862 959 1688 1728 2212 2606 1823 2087 2236 2661 1531 762 572 523 205 28 0 0 0 0 0 0 8 3 4 4 0 15
CIN
-2 -5 -12 0 -2 -2 0 -4 -1 0 -2 0 0 -3 0 -2 -3 -4 -5 -5 -5 -4 -2 -1 -4 -11 -13 -12 -14 -10 -8 -4 -15 -14 -15 -11 -26 -19 -52 -50 -85 -46 -78
-4 -1 -26 -3 -2 0 -5 -5 -1 -1 -1 -1 0 -2 0 0 -1 -1 0 -1 0 0 0 -2 -1 -11 -21 -45 -16 -28 -32 -12 -7 -1 -21 -29 -32 -48 -58 -48 -91 -95 -87
-1 -1 -2 -20 -3 0 -1 -15 -9 -2 0 -1 0 -13 0 0 -1 -1 0 0 0 0 0 0 0 0 -1 -12 -32 -41 -22 -32 -42 -36 -31 -7 -22 -65 -60 -49 -72 -57 -16
-6 -1 -1 -2 0 -6 -24 -12 -1 0 -2 -1 -4 0 0 -16 -8 -1 -2 -17 -18 -9 -4 -11 -14 -7 -1 0 -8 -28 -78 -52 -45 -55 -15 -15 -53 -71 -33 -36 -35 -11 -2
-3 -1 -9 -5 -1 -4 -2 0 0 0 -1 -7 -8 -8 -22 -34 -36 -30 -31 -35 -43 -25 -38 -37 -17 -4 0 -2 -3 -4 -20 -64 -92 -56 -22 -22 -55 -95 -42 -38 -21 -35 -7
-1 -2 -4 -5 -1 -1 0 0 -12 -16 -4 0 0 -6 -13 -14 -15 -31 -43 -47 -53 -48 -33 -23 -13 -24 -29 -7 -19 -25 -14 -13 -27 -2 -1 -1 -1 -49 -49 -9 -2 -2 -10
-5 -2 -8 -1 0 0 0 -3 -2 -2 -5 -20 -32 -29 -24 -25 -40 -42 -41 -32 -19 -22 -32 -40 -43 -49 -49 -44 -26 -19 -20 -17 -5 -1 -1 -1 -1 -18 -28 -20 -4 0 0
-13 -11 -54 -4 0 0 -10 -14 -18 -22 -38 -40 -37 -31 -30 -22 -15 -24 -39 -52 -73 -73 -76 -86 -78 -89 -65 -57 -42 -38 -26 -20 -3 -1 0 -1 -11 -32 -44 -21 -14 -13 -8
-27 -9 -5 -2 -14 -14 -14 -3 -9 -31 -37 -40 -27 -18 -18 -19 -20 -40 -63 -95 -90 -75 -81 -93 -87 -84 -79 -74 -53 -44 -42 -43 -10 0 -1 -1 -25 -50 -50 -27 -17 -19 -16
-59 -25 -6 -7 -8 -4 -27 -57 -52 -56 -43 -27 -17 -18 -29 -33 -46 -48 -41 -45 -57 -54 -57 -49 -49 -51 -53 -53 -47 -36 -16 -19 -9 0 -2 -2 -34 -52 -35 -42 -33 -28 -24
0 -52 -49 -38 -35 -40 -32 -46 -116 -74 -36 -26 -19 -38 -17 -1 -2 -7 -27 -46 -43 -43 -38 -40 -33 -35 -39 -50 -49 -33 -30 -4 -1 -2 -1 -29 -56 -38 -17 -25 -20 -18 -22
0 0 -44 0 0 -69 0 -26 -1 0 -1 -2 -2 -5 -1 -7 -11 -17 -25 -56 -50 -48 -37 -44 -49 -48 -49 -4 -24 -35 -8 -2 -1 -1 -17 -40 -37 -33 -38 -44 -23 -19 -17
0 0 0 0 0 0 -63 -1 -1 -1 0 -2 -3 -2 -9 -4 -7 -1 -1 -1 -1 -21 -1 -9 -5 -2 -1 -1 -1 -2 -3 -1 -33 -5 -39 -48 -39 -39 -93 -83 -35 -23 -17
0 0 0 0 -111 -93 -7 -2 -1 -2 -1 -1 -2 -1 -3 -2 -1 -5 -2 -1 -4 -1 -5 -2 -2 -1 -1 -1 0 -1 -1 -9 -46 -48 -91 -70 -70 -163 -160 -64 -15 -2 -8
0 0 0 -63 -83 -44 -29 -3 -3 -2 -2 -1 -1 -4 -2 -1 -1 -1 -3 -1 -1 -1 -1 -1 0 -2 -1 -2 -1 -1 -2 -5 -29 -35 -10 -71 -138 -270 -164 -93 -47 -55 -31
0 0 0 -60 -61 -29 -12 -24 -8 -1 -2 -1 -1 -2 -4 -1 -2 -2 -1 -1 -1 -1 0 -2 -3 -2 -4 -5 -1 -1 -1 -2 -22 -34 -12 -49 -220 -245 -177 -267 -262 -245 -274
0 0 0 -143 -30 -26 -26 -13 -2 -1 0 -2 -1 -5 -4 -3 -4 -11 -1 -2 -1 -1 -1 -2 -3 -1 -3 -1 -7 -5 -4 -1 -3 -6 -16 -11 -159 -192 -116 -168 -266 -249 -113
0 0 -33 -65 -16 -21 -16 -5 -1 -2 -1 0 0 -1 -4 -1 -3 -1 -1 -2 -2 -1 -2 -1 -2 -7 -22 -9 -11 -17 -19 -2 -2 -1 -1 -8 -15 -5 -116 -143 -128 -235 -61
0 -72 -28 -28 -20 -11 -17 -3 -7 -14 -2 -2 -1 0 -7 -1 -1 -1 -2 -2 -1 -1 -1 -2 -12 -40 -48 -58 -72 -50 -27 -17 -1 -2 -2 -1 -2 -3 -75 -21 -76 -70 -130
0 -75 -31 -29 -23 -21 -13 -18 -4 -1 -1 -1 -2 -1 -5 -1 -1 -1 -1 -1 -1 -2 -1 -1 -1 -19 -151 -247 -293 -251 -151 -63 -27 -1 -1 -1 -1 -15 -19 -8 -17 -6 -17
0 0 -1 -65 -41 -29 -22 -12 -2 -2 -2 0 -2 -6 -5 -7 -6 -4 -5 -3 -3 -2 -7 -2 -25 -39 -150 -337 -263 0 -235 -152 -66 -27 -2 -2 0 -1 -3 -1 -6 -4 -1
-117 -81 -51 -64 -64 -49 -33 -25 -12 -4 -1 -2 -1 -3 -2 -3 -7 0 -12 -2 -5 -1 -1 -1 -4 -93 -150 -349 -304 -271 -65 -154 -167 -22 -223 -48 -2 -1 -3 -10 -1 -1 -1
-113 -79 -69 -50 -56 -61 -72 -53 -39 -26 -21 -8 -3 -2 -2 -8 -7 -7 -4 -2 -1 -3 -4 -1 -10 -60 -145 -246 -461 -155 -212 -222 0 -140 -136 -135 -108 -1 0 -10 0 -1 -15
0 -80 -65 -48 -39 -40 -60 -97 -76 -42 -37 -13 -4 -1 -1 -11 -14 -7 -7 0 -2 -3 -1 -1 -4 -52 -148 -174 -199 -319 0 0 0 0 0 0 -38 -213 -134 -70 -12 -20 -71
-9 0 -51 -53 -61 -55 -76 -81 -160 -76 -80 -37 -8 -7 -10 -17 -15 -9 -9 -1 -2 -2 -2 -1 -1 -34 -120 -143 -129 -199 -172 0 0 0 0 0 0 -2 -200 -113 -182 -311 0
-74 -78 -72 -66 -77 -81 -105 -116 -166 -136 -67 -71 -37 -12 -12 -5 -3 -7 -13 -10 -7 -17 -5 -4 -2 -38 -81 -74 -53 -161 -239 0 0 0 0 0 0 -3 -124 -29 0 -40 -32
Wind_Speed
22 22 22 18 12 15 18 18 18 20 19 19 18 17 21 21 22 24 23 23 22 22 22 21 20 20 20 21 21 22 22 8 8 20 19 17 12 15 16 11 11 10 10
26 24 24 24 24 23 19 18 19 20 20 20 18 18 22 21 21 20 20 20 21 21 20 21 20 19 18 19 19 21 21 19 20 19 20 20 19 11 10 15 18 8 12
28 27 25 22 21 20 20 18 20 21 21 18 17 18 20 20 20 19 19 19 20 19 19 19 18 18 17 16 18 18 18 19 19 19 19 19 19 19 19 16 20 20 20
28 28 27 22 21 20 19 21 20 20 18 16 17 18 19 18 17 17 17 17 16 16 15 15 15 15 15 16 17 17 18 18 19 19 19 18 17 16 18 16 17 15 17
26 27 25 22 21 21 21 19 18 18 19 18 18 19 18 18 17 17 16 16 15 14 13 13 13 13 13 15 16 17 17 18 18 19 18 18 17 15 16 14 15 14 15
24 16 20 19 19 20 19 19 19 18 17 19 17 16 16 16 16 16 16 15 14 13 13 13 13 13 13 13 14 15 16 16 17 18 18 17 18 13 15 16 17 11 12
25 15 16 17 16 17 17 17 16 17 16 16 16 16 15 16 16 16 15 15 14 14 13 13 13 13 13 14 14 14 15 16 16 17 16 17 16 13 14 14 14 12 11
26 26 26 21 17 16 16 16 16 16 16 16 16 15 15 15 15 16 16 16 15 14 14 13 13 13 13 14 13 13 14 14 15 16 15 15 12 11 11 11 10 9 8
25 24 26 25 21 19 18 18 18 17 16 15 14 13 13 15 15 17 16 16 15 14 14 13 13 13 13 13 13 13 13 14 14 15 15 14 12 10 8 8 6 5 5
25 25 20 21 20 20 22 19 18 17 16 15 14 13 14 16 16 17 16 16 14 13 13 13 13 13 13 12 13 12 12 14 15 15 14 13 13 9 7 5 5 3 2
25 25 23 23 21 20 19 19 19 18 17 16 16 15 16 14 14 16 14 13 13 12 13 13 14 14 13 14 14 13 13 14 14 14 12 14 13 12 15 17 14 6 7
26 26 25 24 23 21 19 18 18 17 15 14 14 14 15 15 15 14 15 14 13 13 12 13 13 13 14 13 17 16 15 14 15 15 18 17 17 17 18 18 18 17 12
26 26 25 24 23 22 19 19 19 18 17 17 15 14 14 15 15 14 14 13 13 15 12 13 14 13 12 12 15 15 18 17 18 19 19 18 19 20 21 20 18 15 13
27 26 27 25 23 21 20 19 17 17 16 15 13 15 16 16 15 13 12 12 13 12 11 11 11 10 13 15 14 15 15 16 18 18 19 19 19 20 22 23 22 19 16
27 28 26 26 24 22 21 17 16 16 15 14 16 16 15 14 13 12 11 11 11 11 11 11 11 11 13 13 14 14 14 13 16 16 17 17 18 20 21 22 21 20 19
27 28 28 27 26 23 20 17 16 16 16 16 16 17 16 13 13 12 10 10 11 11 10 10 11 12 12 13 14 12 12 11 12 13 14 14 15 17 19 19 20 20 20
28 29 30 28 26 24 20 18 16 16 15 17 17 16 15 13 14 11 10 9 9 10 10 9 10 12 12 11 12 11 10 10 9 10 10 15 13 14 16 17 18 18 18
25 30 30 28 26 23 20 19 17 14 14 15 18 17 15 14 13 11 10 9 10 10 8 9 12 12 13 13 12 9 11 11 9 10 9 10 10 10 12 14 14 15 14
24 23 27 27 25 22 22 20 17 15 14 11 17 16 15 14 13 11 10 12 9 9 10 11 16 14 14 13 10 12 12 10 10 7 9 9 10 11 11 9 11 9 11
21 23 24 26 24 21 22 21 19 18 17 16 16 16 16 16 14 13 10 10 10 14 20 23 18 18 17 18 14 16 14 13 11 11 10 10 10 10 8 9 9 7 7
18 22 25 22 25 24 24 22 20 19 17 15 15 15 16 16 16 16 12 16 15 21 23 23 17 20 20 23 16 17 15 16 15 14 13 15 14 12 10 12 9 9 7
20 21 24 26 22 21 23 23 22 21 17 16 14 13 14 15 15 14 16 17 21 20 22 20 23 19 22 24 22 16 18 16 19 20 21 20 18 17 15 14 10 8 7
24 21 20 22 20 19 22 15 22 21 18 16 15 14 12 13 12 13 13 7 17 14 22 21 23 24 23 22 24 20 18 20 19 18 21 24 24 22 21 18 15 14 12
20 17 18 13 14 11 10 21 22 21 18 16 17 6 13 17 11 11 11 11 11 13 20 22 23 23 23 24 21 23 21 20 21 19 18 22 23 24 24 23 21 18 15
20 14 9 8 6 5 6 17 17 21 22 20 18 16 16 18 19 11 11 10 9 8 20 21 21 23 22 23 24 25 22 20 21 21 21 22 21 24 27 25 22 19 16
12 10 8 7 7 7 4 5 14 22 21 23 17 19 15 11 8 11 10 8 8 8 11 17 18 20 22 22 24 22 22 22 21 21 20 22 22 22 26 26 21 18 16
Wind_Direction
157 153 150 168 203 179 165 164 164 157 155 154 151 151 140 137 129 123 126 127 127 119 119 113 121 121 123 126 129 118 126 312 264 159 134 111 26 55 61 15 2 342 0
142 148 147 147 150 150 163 164 162 155 151 151 151 149 137 136 137 141 139 138 127 123 126 117 115 124 136 136 139 105 106 165 158 166 151 130 118 337 334 47 92 313 29
130 135 142 157 163 164 162 164 156 151 148 157 159 155 146 142 142 142 138 133 126 128 127 122 123 122 133 150 150 157 171 156 151 165 166 156 126 117 132 56 80 107 115
136 132 134 155 160 161 163 157 156 157 162 168 165 155 149 151 155 152 145 141 142 141 143 142 139 144 146 143 145 153 170 185 171 167 165 150 126 96 128 144 110 90 106
145 142 145 156 161 159 158 164 165 165 160 159 157 149 151 153 156 155 154 152 149 151 156 161 159 157 162 157 150 145 160 176 179 176 144 144 142 94 113 96 97 96 116
155 178 170 174 172 168 168 166 164 165 163 154 156 159 159 163 163 163 163 164 165 164 162 162 163 161 165 169 163 162 163 170 177 165 167 150 174 37 114 142 155 91 88
150 183 187 186 185 179 176 172 173 165 168 166 161 160 165 164 165 167 171 169 165 161 161 165 170 169 170 163 160 162 166 169 178 164 157 174 141 100 125 131 133 119 108
142 144 144 170 181 182 179 178 175 172 170 165 163 166 167 170 169 163 158 155 156 157 155 160 165 169 160 156 162 171 169 169 164 157 152 148 75 100 120 121 117 110 102
146 157 147 150 170 174 175 175 173 173 173 169 171 173 173 166 161 155 154 152 158 163 163 164 170 169 166 170 180 177 177 173 184 159 149 134 77 97 114 131 87 96 89
148 152 177 173 176 173 160 172 176 178 176 176 178 176 174 158 157 151 155 148 158 167 172 173 180 185 185 179 172 181 179 166 165 139 134 94 46 81 93 60 29 29 18
150 157 164 166 177 179 176 172 169 170 172 171 165 166 161 169 166 155 164 166 173 174 176 181 181 184 188 180 165 167 168 162 147 126 125 51 56 47 16 353 347 345 332
155 160 159 168 173 176 179 181 179 176 178 183 184 178 165 162 159 158 149 151 160 169 176 177 181 185 178 180 135 135 145 136 113 96 42 44 46 34 22 8 352 341 333
160 166 167 173 176 177 182 176 173 171 167 165 171 177 169 155 145 152 151 153 159 142 167 160 160 173 193 185 136 126 87 90 79 64 50 55 45 31 27 26 18 4 351
161 166 169 174 177 182 181 177 181 180 177 180 190 172 157 135 139 154 154 163 157 170 183 173 191 198 168 133 127 107 93 81 63 64 59 60 52 43 35 33 35 34 18
167 164 170 173 171 180 179 189 197 190 185 194 169 157 152 152 156 162 168 179 179 185 181 192 201 209 178 139 121 102 78 87 67 67 59 62 54 47 43 43 45 45 33
171 166 165 166 165 178 189 196 199 190 186 180 164 154 139 159 151 160 166 188 181 185 207 201 238 179 160 134 91 88 80 78 76 61 57 57 52 45 43 46 48 46 39
167 164 157 163 169 174 188 191 195 186 192 168 160 154 160 155 138 179 203 213 206 187 178 188 186 132 143 137 89 80 77 68 67 59 54 40 39 37 37 41 46 43 37
130 151 165 171 169 181 194 183 191 203 209 203 129 140 152 147 157 172 190 234 250 183 185 162 122 115 92 79 70 77 56 49 57 43 43 37 36 42 32 31 29 42 37
130 131 155 177 184 200 196 195 200 211 210 280 75 91 77 150 178 195 263 297 228 235 138 129 84 94 74 66 69 50 42 45 42 44 34 33 26 24 22 26 34 44 41
133 144 151 169 204 219 213 213 206 173 169 94 76 59 94 92 147 166 240 259 244 314 52 29 65 56 60 48 54 41 45 40 41 31 21 19 14 14 10 8 25 43 38
135 149 161 155 185 211 185 177 175 167 151 119 108 85 81 76 111 117 189 317 297 5 23 25 65 45 45 32 54 44 48 41 37 29 22 11 8 8 10 1 11 6 17
154 158 166 175 163 164 200 201 217 204 168 184 128 83 83 75 118 120 57 51 358 43 32 46 36 50 36 31 38 51 41 44 29 19 11 8 8 8 5 1 360 351 350
171 164 162 166 162 160 175 184 206 194 194 171 153 135 80 79 142 161 184 11 47 78 22 35 24 26 31 32 34 41 37 26 21 26 18 11 5 8 7 4 2 2 8
170 164 166 157 156 147 144 179 188 188 181 164 177 342 170 324 158 131 119 113 105 60 32 22 19 26 26 25 31 27 29 23 20 17 18 16 14 12 10 8 18 18 19
169 158 154 155 156 152 140 171 169 182 195 194 181 171 197 264 275 76 103 125 135 166 15 20 25 19 24 23 18 16 19 19 18 16 14 13 16 17 13 14 21 28 31
155 150 147 152 156 153 151 140 163 185 188 207 180 198 181 157 67 33 53 126 79 70 43 21 25 22 19 18 15 18 18 19 18 17 14 14 14 20 19 20 30 43 49